TimeCDT,TemperatureF,Dew PointF,Humidity,Sea Level PressureIn,VisibilityMPH,Wind Direction,Wind SpeedMPH,Gust SpeedMPH,PrecipitationIn,Events,Conditions,WindDirDegrees,DateUTC
12:53 AM,21.0,17.1,85,30.30,10.0,ESE,8.1,-,N/A,,Clear,120,2013-03-27 05:53:00
1:53 AM,21.0,17.1,85,30.32,10.0,SE,8.1,-,N/A,,Clear,130,2013-03-27 06:53:00
2:53 AM,19.9,16.0,85,30.31,10.0,SE,6.9,-,N/A,,Clear,130,2013-03-27 07:53:00
3:53 AM,19.9,17.1,89,30.28,10.0,SE,9.2,-,N/A,,Clear,130,2013-03-27 08:53:00
4:53 AM,19.9,17.1,89,30.28,10.0,ESE,6.9,-,N/A,,Clear,120,2013-03-27 09:53:00
5:53 AM,21.0,16.0,81,30.27,10.0,SE,10.4,-,N/A,,Clear,140,2013-03-27 10:53:00
6:53 AM,21.0,16.0,81,30.27,10.0,SE,8.1,-,N/A,,Clear,140,2013-03-27 11:53:00
7:53 AM,23.0,16.0,74,30.27,10.0,SE,9.2,-,N/A,,Mostly Cloudy,130,2013-03-27 12:53:00
8:53 AM,25.0,18.0,75,30.29,10.0,SE,10.4,-,N/A,,Overcast,140,2013-03-27 13:53:00
9:53 AM,27.0,19.9,75,30.29,10.0,SE,10.4,-,N/A,,Overcast,140,2013-03-27 14:53:00
10:53 AM,30.0,21.9,72,30.29,10.0,North,-9999.0,-,N/A,,Scattered Clouds,0,2013-03-27 15:53:00
11:53 AM,33.1,24.1,70,30.30,10.0,SSE,13.8,-,N/A,,Clear,160,2013-03-27 16:53:00
12:53 PM,34.0,25.0,70,30.28,10.0,SE,12.7,-,N/A,,Clear,140,2013-03-27 17:53:00
1:53 PM,35.1,26.1,70,30.28,10.0,SSE,9.2,-,N/A,,Partly Cloudy,150,2013-03-27 18:53:00
2:53 PM,37.0,27.0,67,30.27,10.0,SE,10.4,20.7,N/A,,Clear,130,2013-03-27 19:53:00
3:53 PM,37.0,28.0,70,30.27,10.0,SE,12.7,19.6,N/A,,Clear,130,2013-03-27 20:53:00
4:53 PM,37.0,28.9,73,30.26,10.0,ESE,10.4,-,N/A,,Clear,110,2013-03-27 21:53:00
5:53 PM,37.0,30.0,76,30.26,10.0,East,9.2,-,N/A,,Clear,100,2013-03-27 22:53:00
6:53 PM,34.0,28.9,82,30.26,10.0,East,9.2,-,N/A,,Clear,100,2013-03-27 23:53:00
7:53 PM,33.1,28.0,82,30.27,10.0,East,8.1,-,N/A,,Clear,100,2013-03-28 00:53:00
8:53 PM,32.0,27.0,82,30.27,10.0,ESE,10.4,18.4,N/A,,Clear,110,2013-03-28 01:53:00
9:53 PM,32.0,27.0,82,30.27,10.0,ESE,9.2,-,N/A,,Clear,120,2013-03-28 02:53:00
10:53 PM,32.0,26.1,79,30.27,10.0,SE,10.4,-,N/A,,Clear,130,2013-03-28 03:53:00
11:53 PM,32.0,26.1,79,30.27,10.0,SE,9.2,-,N/A,,Clear,140,2013-03-28 04:53:00